STARLINK-2524 (48304 NORAD) Tracking and Keplerian Element Data

This shows tracking and keplerian element data for the satellite.

Feedback or suggestion? Click here.




ElementValue
Catalog48304
NameSTARLINK-2524
Epoch Orbit196
Epoch Day173.83334491
Epoch Year2021
RAAN258.7933
Inclination53.0509
Eccentricity0.0001171
Argument of Perigee87.8073
Mean Anonmoly202.5913
Mean Motion15.4062088
Decay Rate-0.01084511
L11 48304U 21036AE 21173.83334491 -.01084511 00000-0 -28581-1 0 9997
L22 48304 53.0509 258.7933 0001171 87.8073 202.5913 15.40620880 1965

Live tracking and technical data element details for STARLINK-2524 (NORAD 48304). STARLINK-2524 can be tracked NOW for your location showing map with azimuth and elevation plus other details from your city location.

Track the satellite on the map from your city or location and see movement details for azimuth, elevation, latitude, longitude, range, height, and movement on the map or in text.







IsCatalogInMostPopularTable: catalog: 48304, numindb: 21
Update: records affected: 1



GetName: 48304 STARLINK-2524

Hit Count: updated at: Thu, 24 Jun 2021 04:13:36 GMT